This is the latest recevied weather packets stored in our database for station/object K3BAY-1. If no packets are shown the sender has not sent any weather packets the latest 10 day(s).
| Time | Temp. | Humidity | Pressure | Rain* | Wind** | Luminosity | Snow |
|---|---|---|---|---|---|---|---|
| 1777722039 | 10.56° C | 73% | 1012.2 hPa | 0 mm | - | 48 W/m² | - |
| 1777721736 | 10.56° C | 71% | 1011.5 hPa | 0 mm | - | 49 W/m² | - |
| 1777721435 | 10.56° C | 72% | 1011.1 hPa | 0 mm | - | 47 W/m² | - |
| 1777720929 | 10.56° C | 72% | 1011.5 hPa | 0 mm | - | 29 W/m² | - |
| 1777720625 | 10.56° C | 72% | 1011.5 hPa | 0 mm | - | 29 W/m² | - |
| 1777720323 | 10.56° C | 73% | 1011.5 hPa | 0 mm | - | 31 W/m² | - |
| 1777720021 | 10.56° C | 73% | 1011.5 hPa | 0 mm | - | 31 W/m² | - |
| 1777719718 | 10.56° C | 71% | 1011.5 hPa | 0 mm | - | 23 W/m² | - |
| 1777719415 | 10.56° C | 71% | 1011.5 hPa | 0 mm | - | 23 W/m² | - |
| 1777719112 | 10.56° C | 71% | 1011.9 hPa | 0 mm | - | 24 W/m² | - |
| 1777718809 | 10.56° C | 71% | 1011.9 hPa | 0 mm | - | 20 W/m² | - |
| 1777718507 | 10.56° C | 70% | 1011.9 hPa | 0 mm | - | 10 W/m² | - |
| 1777718204 | 10.56° C | 70% | 1011.9 hPa | 0 mm | - | 10 W/m² | - |
| 1777717902 | 10.56° C | 71% | 1010.8 hPa | 0 mm | - | 6 W/m² | - |
| 1777717598 | 10.56° C | 70% | 1010.8 hPa | 0 mm | - | 2 W/m² | - |
| 1777717295 | 10.56° C | 70% | 1010.8 hPa | 0 mm | - | 2 W/m² | - |
| 1777716993 | 10.56° C | 70% | 1010.8 hPa | 0 mm | - | 3 W/m² | - |
| 1777716441 | 11.11° C | 70% | 1010.8 hPa | 0 mm | - | 0 W/m² | - |
| 1777716140 | 11.11° C | 70% | 1010.8 hPa | 0 mm | - | 0 W/m² | - |
| 1777715838 | 11.11° C | 70% | 1010.8 hPa | 0 mm | - | 0 W/m² | - |
| 1777715535 | 11.11° C | 70% | 1010.8 hPa | 0 mm | - | 0 W/m² | - |
| 1777715233 | 11.11° C | 69% | 1011.1 hPa | 0 mm | - | 0 W/m² | - |
| 1777714930 | 11.11° C | 69% | 1011.1 hPa | 0 mm | - | 0 W/m² | - |
| 1777714628 | 11.11° C | 70% | 1010.4 hPa | 0 mm | - | 0 W/m² | - |
| 1777714326 | 11.11° C | 70% | 1010.4 hPa | 0 mm | - | 0 W/m² | - |
* Rain latest hour (hover to see other rain measurements)
** Current wind speed in m/s (hover to see current wind gust speed)